Other Public Products
Issued by NWS Charleston, SC

Current Version | Previous Version | Text Only | Print | Product List | Glossary On
Versions: 1 2 3 4 5 6 7 8 9 10 11 12 13 14 15 16 17 18 19 20 21 22 23 24 25 26 27 28 29 30 31 32 33 34 35 36 37 38 39 40 41 42 43 44 45 46 47 48 49 50
000 FPUS82 KCHS 251412 OPUCHS TEST...KCHS/KSAV Gateway Observations...TEST National Weather Service Charleston SC 1000 AM EDT WED APR 25 2018 NOTE: "fair" indicates few or no clouds below 12,000 feet with no significant weather and/or obstructions to visibility. SCZ050-WAZ558-NCZ071-TXZ119-213-PAZ071-DCZ001-FLZ074-172-MI076- NYZ176-178-MAZ016-IL014-TNZ027-NJZ106-GAZ044-MD014-251500- ...Gateway Observations for Charleston International... CITY SKY/WX TMP DP RH WIND PRES REMARKS Chas Airport FAIR 69 57 65 SW9 29.83S Seattle PTCLDY 54 39 57 NE10 30.10R Charlotte PTSUNNY 62 58 86 NW5 29.80S Dallas DFW CLOUDY 60 51 72 N21 30.10S Dallas Love CLOUDY 65 53 65 N15 30.11R Philladelphia CLOUDY 58 57 97 E9 29.80F Wash National CLOUDY 60 57 89 N7 29.77F FOG Baltimore DRZL/FOG 58 58 100 NE10 29.76F VSB 1 Miami FAIR 74 61 63 NW8 30.01S Detroit CLOUDY 50 44 80 N12G22 29.94R Newark CLOUDY 56 55 97 E9G20 29.87F Laguardia LGT RAIN 60 55 83 SE15G28 29.87F J F K DRIZZLE 54 54 100 E20G30 29.88F FOG Boston Logan NOT AVBL Ft. Lauderdale FAIR 75 62 64 NW8 30.00R Chicago O`Hare FAIR 47 31 53 N20 30.11R Chicago Midway FAIR 48 34 58 N16G26 30.11R Houston Bush FAIR 71 65 81 CALM 30.08R Houston Hobby FAIR 70 67 90 SW6 30.07R Nashville FAIR 62 52 69 N10G20 30.00F Atlanta CLOUDY 59 54 83 NW15G21 29.94R $$ GAZ044-118-TXZ119-213-NCZ071-DCZ001-MDZ014-506-PAZ021-071-NJZ106- NYZ176-178-MAZ106-OHZ011-021-055-MIZ076-KYZ091-ILZ014-INZ047- MNZ060-ONZ431-251500- ...Gateway Observations for Savannah International... CITY SKY/WX TMP DP RH WIND PRES REMARKS Savannah Arpt FAIR 68 56 65 W12 29.88S Atlanta CLOUDY 59 54 83 NW15G21 29.94R Charlotte PTSUNNY 62 58 86 NW5 29.80S Dallas DFW CLOUDY 60 51 72 N21 30.10S Houston Bush FAIR 71 65 81 CALM 30.08R Wash National CLOUDY 60 57 89 N7 29.77F FOG Wash Dulles FOG 55 55 100 N8 29.78F VSB 1/2 Baltimore DRZL/FOG 58 58 100 NE10 29.76F VSB 1 Philadelphia CLOUDY 58 57 97 E9 29.80F Newark CLOUDY 56 55 97 E9G20 29.87F Laguardia LGT RAIN 60 55 83 SE15G28 29.87F J F K DRIZZLE 54 54 100 E20G30 29.88F FOG Boston NOT AVBL Pittsburg CLOUDY 54 50 86 CALM 29.83S Akron CLOUDY 53 49 86 NW7 29.86S FOG Cleveland CLOUDY 53 51 93 NW9 29.89S Cincinnati CLOUDY 54 50 86 NW14 29.95R Columbus CLOUDY 53 53 100 NW8 29.88S Detroit CLOUDY 50 44 80 N12G22 29.94R Chicago O`Hare FAIR 47 31 53 N20 30.11R Minneapolis FAIR 42 27 55 VRB5 30.25F Indianapolis PTSUNNY 53 50 89 N14 30.02R FOG Toronto Canada LGT RAIN 48 46 93 E5 29.86F $$

USA.gov is the U.S. government's official web portal to all federal, state and local government web resources and services.